Weather in Koskosalma

Russia / Republic of Karelia     62°24′08″N   36°59′58″E
temp.,
°C
wind,
m/s
gust,
m/s
humid.,
%
clouds,
%
prec.,
mm/h
press.,
hPa
HPBL,
m
1 march, mon
mon100:00−2wsw4997100 0.1 1014367
03:000wsw51194100 0.1 1013620
06:00−1w61196100 0.0 1010693
09:00+1w61398100 0.3 1008634
12:00+1w51298100 0.2 1006589
15:00+1w51199100 0.3 1005657
18:00+1wnw51299100 1.3 1002717
21:000w51197100 1.6 1000762
2 march, tue
tue200:000wnw61385100 0.6 9991112
03:00−3wnw5138894 0.6 1000701
06:00−4wnw5139165 0.0 999746
09:00−3wnw5119082 0.1 1001717
12:00−3nw71181100 0.3 10021318
15:00−4nw61085100 0.5 10041101
18:00−6nw51290100 0.1 1007761
21:00−7nw51290100 0.1 1009657
3 march, wed
wed300:00−9wnw4119032 0.0 1009299
03:00−10wnw399557 0.0 1009230
06:00−8w499595 0.1 1007342
09:00−6wnw499496 0.3 1007524
12:00−4nw4889100 0.1 1006765
15:00−4wnw4786100 0.2 1005801
18:00−5wsw2694100 0.1 1003243
21:00−7sw2398100 0.1 100083
4 march, thu
thu400:00−5sse2297100 0.5 99574
03:00−6ene4796100 2.1 993288
06:00−7nne4994100 0.6 993368
09:00−8n4993100 0.8 994401
12:00−7n499092 0.0 996572
15:00−7nnw489096 0.1 997643
18:00−9nnw4992100 0.1 998510
21:00−12nnw399699 0.1 1000265
5 march, fri
fri500:00−16n259393 0.0 1002121
03:00−19nnw229556 0.0 100420
06:00−19nw239875 0.0 100676
09:00−17nnw259682 0.1 1007206
12:00−14n248796 0.0 1009532
15:00−13nnw248698 0.1 1011663
18:00−16nw2395100 0.1 101340
21:00−19nnw229772 0.1 101420